STARLINK-32791, 62530

Orbit data source: Space-Track

STARLINK-32791, 62530 is a payload satellite owned by SpaceX/Seattle (US) in LEO that was launched on Wed, 08 Jan 2025 UTC via an FALCON 9 launch vehicle from the Air Force Eastern Test Range (AFETR). Payload-class satellites include a variety of spacecraft equipped with specific instruments for various scientific and technological missions. These include communications satellites like Starlink; space stations such as the ISS; scientific satellites like the Hubble; Earth observation satellites from companies like Planet Labs, Umbra, and HawkEye 360; GPS; miniature CubeSats for education and research; and military/defense satellites.

Loading next visibility...
Identifier
62530, 2025-004V
Orbit
LEO
Country
Flag of USUS
Related business
Manufacturer
SpaceX/Seattle
Mission
Operational Commercial Communications
Bus & Motor
STARLINK V2M, Unknown motor
Mass
730 kg wet, ~700 kg dry
Launch date (UTC)
2025-01-08 (9 months ago)
Launch vehicle
FALCON 9
Launch site
Air Force Eastern Test Range (AFETR)
Object type
Payload
Rocket body
Debris
Shape & HBR
Box + 2 Pan, 17.7 m
Radar Cross Section
33.884 m², Large (>1 m²)

Expand to show TLE details & history
Last TLE update: 13 hours ago

TLE from 13 hours ago
0 STARLINK-32791
1 62530U 25004V   25294.37830863  .00033599  00000-0  12238-2 0  9994
2 62530  43.0012 286.5515 0000184 204.9581 155.1262 15.27610431 45159
Epoch: 2025-10-21T09:04Z
TLE epoch observation values (Epoch: 2025-10-21T09:04:45.865Z)
Latitude
-0.00001°
Longitude
120.29326°
Altitude
482.848 km
Speed
7.626 km/s
True Right ascension
19h 06m 12s
True Declination
0° 00' 00"
Sunlit
Object was in daylight at epoch
Visualization orbit readout
Latitude
Unknown
Longitude
Unknown
Altitude
Unknown
Speed
Unknown
Apparent Right ascension
Unknown
Apparent Declination
Unknown
Sunlit
N/A
Visualization observer readout
Local Sidereal Time
17:07:42
Azimuth
Unknown
Elevation
Unknown
Doppler factor
Unknown
Orbital elements
Apogee altitude
485.029 km
Perigee altitude
484.777 km
Semi-major axis
6,863.04 km
Eccentricity
0.00002
Inclination
43.0012°
RAAN
286.5515°
Arg. of periapsis
204.9581°
True anomaly
155.12709°
Mean anomaly
155.1262°
Eccentric anomaly
155.12664°
Mean motion
3.81741 °/min
Orbital period
94.3 mins
BSTAR
0.0012238
Loading maneuver chart data...
Computing Atmospheric mass density...
Loading historical data...
Loading historical data...
Loading historical data...
Loading historical data...
Loading historical data...
Loading historical data...
Loading historical data...

Documentation

Showing up to 5 results
|